Location: Berlin
(52.5171°N, 13.3759°E)
Time: 03:08:31
(UTC+01:00)

Envisat - Visible Passes

Search period start: 22 November 2017 00:00
Search period end: 02 December 2017 00:00
Orbit: 764 x 766 km, 98.2° (Epoch: 21 November)

Date Brightness Start Highest point End Pass type
(mag) Time Alt. Az. Time Alt. Az. Time Alt. Az.
22 Nov 4.7 17:58:42 16° NNE 17:58:42 16° NNE 18:00:34 10° NNE visible
22 Nov 4.8 19:38:54 22° NNW 19:38:54 22° NNW 19:40:40 10° NNW visible
23 Nov 5.0 17:21:38 10° NE 17:21:38 10° NE 17:22:09 10° NNE visible
23 Nov 4.6 19:01:51 23° N 19:01:51 23° N 19:03:47 10° N visible
23 Nov 5.8 20:42:03 13° NW 20:42:03 13° NW 20:42:38 10° NNW visible
24 Nov 6.3 07:00:09 10° ENE 07:00:36 10° E 07:01:04 10° E visible
24 Nov 4.6 18:24:47 19° NNE 18:24:47 19° NNE 18:26:40 10° N visible
24 Nov 5.3 20:04:59 18° NNW 20:04:59 18° NNW 20:06:14 10° NNW visible
25 Nov 4.8 17:47:42 14° NNE 17:47:42 14° NNE 17:49:09 10° NNE visible
25 Nov 4.9 19:27:55 21° N 19:27:55 21° N 19:29:31 10° NNW visible
26 Nov 4.7 18:50:50 20° N 18:50:50 20° N 18:52:35 10° N visible
26 Nov 5.7 20:31:03 13° NNW 20:31:03 13° NNW 20:31:39 10° NNW visible
27 Nov 4.7 18:13:46 17° NNE 18:13:46 17° NNE 18:15:22 10° N visible
27 Nov 5.2 19:53:58 17° NNW 19:53:58 17° NNW 19:55:09 10° NNW visible
28 Nov 4.9 17:36:41 12° NNE 17:36:41 12° NNE 17:37:39 10° NNE visible
28 Nov 4.9 19:16:53 19° N 19:16:53 19° N 19:18:22 10° N visible
29 Nov 5.9 07:12:46 10° NE 07:15:22 14° E 07:17:56 10° ESE visible
29 Nov 4.7 18:39:47 18° N 18:39:47 18° N 18:41:21 10° N visible
29 Nov 5.6 20:20:00 13° NNW 20:20:00 13° NNW 20:20:38 10° NNW visible
30 Nov 4.8 18:02:42 15° NNE 18:02:42 15° NNE 18:04:02 10° N visible
30 Nov 5.2 19:42:54 17° NNW 19:42:54 17° NNW 19:44:02 10° NNW visible
01 Dec 5.0 17:25:37 10° NNE 17:25:37 10° NNE 17:25:55 10° NNE visible
01 Dec 4.9 19:05:48 18° N 19:05:48 18° N 19:07:10 10° N visible
